[[{"header":{"parameterUnit":"m.s-1","parameterCategory":1,"la1":30.2991,"la2":30.254,"lo1":-89.0895,"lo2":-89.0444,"dy":0.0017,"dx":0.0017,"nx":28,"ny":28,"refTime":"2024-02-20T09:00:00:Z","depth":0,"parameterNumber":2,"parameterNumberName":"U-component_of_WINDS"},"data":[0,0,0,0,0,0,0,0,0,0,0,0,0,0,0,0,0,0,0,0,0,0,0,0,0,0,0,0,0,0,0,0,0,0,0,0,0,0,0,0,0,0,0,0,0,0,0,0,0,0,0,0,0,0,0,0,0,0,1.7767,1.7768,0,1.7871,1.7872,1.7873,1.7891,1.789,1.7889,1.7888,1.8001,1.8004,1.8008,0,0,0,0,0,0,0,0,0,0,0,0,0,1.7593,1.7596,1.7767,1.7768,1.777,1.787,1.7872,1.7873,1.7891,1.789,1.7889,1.7888,1.7999,1.8004,1.8008,0,0,0,0,0,0,0,0,0,0,0,0,0,1.768,1.7597,1.7767,1.7791,1.7794,1.787,1.7872,1.7874,1.7891,1.789,1.7889,1.7887,1.7998,1.8003,1.8009,1.8071,0,0,1.8026,1.8029,0,0,0,0,0,0,0,0,1.7675,1.7686,1.7786,1.7789,1.7793,1.7866,1.7852,1.794,1.7892,1.7854,1.7888,1.7887,1.7957,1.7966,1.7989,1.8076,1.8081,1.8027,1.803,1.8033,1.8035,0,0,0,0,0,0,0,1.7669,1.7682,1.7808,1.7787,1.7792,1.7799,1.7809,1.7868,1.7912,1.7858,1.7859,1.7871,1.7959,1.7983,1.7992,1.8083,1.8027,1.8032,1.8035,1.8038,1.8229,1.823,0,0,0,0,0,0,1.7658,1.7677,1.7805,1.7811,1.7729,1.7803,1.7815,1.7844,1.7912,1.7921,1.7872,1.7871,1.7974,1.7985,1.7996,1.8074,1.8033,1.8038,1.8042,1.8227,1.8229,1.8231,0,0,0,0,0,0,1.7654,1.7669,1.7801,1.7745,1.7762,1.7807,1.784,1.7847,1.7871,1.7922,1.7931,1.7888,1.7974,1.7988,1.8052,1.8078,1.8041,1.8046,1.8225,1.8228,1.823,1.823,0,0,0,0,0,0,1.7649,1.7667,1.7689,1.7745,1.7765,1.7853,1.7841,1.785,1.788,1.788,1.794,1.7948,1.7974,1.8043,1.8058,1.8085,1.805,1.8223,1.8226,1.8229,1.8228,1.8232,1.8235,0,0,0,0,0,1.7642,1.7686,1.769,1.7706,1.7793,1.7854,1.7866,1.7892,1.7882,1.7906,1.7939,1.7947,1.8073,1.805,1.8066,1.8096,1.8221,1.8225,1.8229,1.8226,1.8231,1.8235,0,0,0,0,0,0,1.7634,1.7694,1.7699,1.7761,1.7803,1.7857,1.7888,1.7897,1.7943,1.7942,1.7975,1.7988,1.8051,1.808,1.8053,1.816,1.8147,1.8154,1.8139,1.8144,1.8148,1.814,1.8055,0,0,0,0,0,1.7639,1.7682,1.7733,1.7783,1.7803,1.7842,1.787,1.7887,1.7932,1.795,1.7988,1.8033,1.8083,1.8115,1.8164,1.8232,1.8247,1.8261,1.8265,1.8267,1.8273,1.8314,1.8321,1.8243,1.8243,1.8243,0,0,1.7651,1.7689,1.7714,1.7783,1.7816,1.7863,1.7857,1.7905,1.7941,1.7958,1.802,1.805,1.8103,1.817,1.8202,1.8196,1.8298,1.8272,1.8274,1.8279,1.8318,1.8326,1.8332,1.8245,1.8245,1.8245,0,0,1.7696,1.7728,1.7774,1.7808,1.7859,1.7884,1.7896,1.795,1.7969,1.8033,1.8047,1.8091,1.8176,1.8213,1.8243,1.8305,1.8314,1.832,1.8341,1.8379,1.8386,1.8391,1.8414,1.8422,1.8326,1.8326,1.8326,0,1.7704,1.7772,1.7797,1.7845,1.7876,1.7892,1.7941,1.7973,1.8038,1.806,1.8053,1.8161,1.8198,1.8275,1.8289,1.8313,1.8329,1.8313,1.8382,1.8388,1.8394,1.8416,1.8425,1.8326,1.8326,1.8326,1.8326,0,1.778,1.7828,1.7859,1.792,1.7954,1.8003,1.8038,1.807,1.8085,1.8112,1.8178,1.8223,1.8281,1.8301,1.8316,1.8381,1.8376,1.8375,1.8362,1.8401,1.8423,1.8432,1.8327,1.8327,1.8326,1.8326,0,0,1.7822,1.7896,1.7908,1.7936,1.7994,1.8033,1.8083,1.8139,1.8167,1.8212,1.8257,1.8329,1.8329,1.8363,1.8383,1.8417,1.8464,1.8412,1.8414,1.8421,1.8541,1.8541,1.8551,1.8471,1.8473,1.8474,1.8537,0,1.7874,1.7961,1.7987,1.8062,1.8107,1.8124,1.8168,1.821,1.8238,1.8283,1.8314,1.8365,1.836,1.8381,1.8416,1.8451,1.8489,1.8447,1.8515,1.8517,1.8501,1.8562,1.8563,1.8619,1.8545,1.8547,1.8548,0,1.7946,1.7991,1.8069,1.8124,1.8144,1.8182,1.8237,1.8278,1.8328,1.8346,1.8385,1.8402,1.8458,1.8442,1.8521,1.8492,1.8522,1.8544,1.8547,1.8554,1.8535,1.8572,1.8638,1.8647,1.8561,1.856,1.8559,0,1.7969,1.805,1.8108,1.8132,1.8196,1.8223,1.8252,1.8299,1.8332,1.8381,1.8403,1.8458,1.8488,1.8531,1.8564,1.8549,1.8641,1.8627,1.866,1.8659,1.8678,1.8677,1.8751,1.8697,1.8696,1.8696,1.8696,0,1.8025,1.8073,1.8119,1.8155,1.821,1.824,1.8295,1.8325,1.8368,1.8411,1.8431,1.8472,1.8512,1.856,1.8586,1.8649,1.8662,1.868,1.8687,1.8679,1.8676,1.8699,1.8696,1.8699,1.8698,1.8698,1.8697,0,1.806,1.8092,1.8157,1.8213,1.8228,1.8267,1.8316,1.8352,1.8381,1.8437,1.8452,1.8498,1.8555,1.8591,1.8665,1.8683,1.8751,1.8757,1.8734,1.8737,1.8768,1.8765,1.8859,1.8874,1.8809,1.8809,1.881,0,1.8093,1.813,1.819,1.822,1.8248,1.8296,1.8329,1.8362,1.8396,1.8456,1.8486,1.8544,1.8592,1.8683,1.8725,1.8782,1.8789,1.8818,1.8798,1.8789,1.8791,1.8788,1.8793,1.8821,1.8822,1.8822,1.8823,0,1.815,1.8164,1.821,1.8263,1.8302,1.8345,1.8388,1.8413,1.8453,1.8491,1.8549,1.8586,1.866,1.8719,1.8779,1.8812,1.8825,1.8829,1.884,1.8832,1.8818,1.8827,1.8744,1.8827,1.8826,1.8826,1.8826,1.8825,1.8186,1.822,1.8268,1.8319,1.8355,1.8396,1.8434,1.8467,1.8515,1.8577,1.8594,1.8655,1.8706,1.8788,1.8822,1.8872,1.8869,1.8884,1.8888,1.8891,1.8892,1.8809,1.8883,1.8883,1.8883,1.8883,1.8883,0,1.8244,1.8276,1.8323,1.8382,1.8424,1.8431,1.848,1.8515,1.8567,1.8613,1.8659,1.8727,1.8784,1.883,1.889,1.8921,1.8929,1.8936,1.8934,1.8942,1.8891,1.8876,1.8929,1.8929,1.8929,1.8929,1.8929,1.8929,1.8279,1.8338,1.8359,1.8437,1.847,1.8528,1.8556,1.8594,1.8631,1.8705,1.8752,1.8781,1.8828,1.8891,1.8945,1.8957,1.8979,1.8984,1.8998,1.895,1.8945,1.894,1.8927,1.8989,1.8989,1.9045,1.9046,1.9046]},{"header":{"parameterUnit":"m.s-1","parameterCategory":1,"la1":30.2991,"la2":30.254,"lo1":-89.0895,"lo2":-89.0444,"dy":0.0017,"dx":0.0017,"nx":28,"ny":28,"refTime":"2024-02-20T09:00:00:Z","depth":0,"parameterNumber":3,"parameterNumberName":"V-component_of_WINDS"},"data":[0,0,0,0,0,0,0,0,0,0,0,0,0,0,0,0,0,0,0,0,0,0,0,0,0,0,0,0,0,0,0,0,0,0,0,0,0,0,0,0,0,0,0,0,0,0,0,0,0,0,0,0,0,0,0,0,0,0,2.2886,2.2887,0,2.2981,2.2982,2.2983,2.3011,2.3011,2.301,2.301,2.3101,2.3104,2.3107,0,0,0,0,0,0,0,0,0,0,0,0,0,2.2719,2.2722,2.2886,2.2887,2.2888,2.2981,2.2982,2.2983,2.3011,2.3011,2.301,2.3009,2.31,2.3103,2.3107,0,0,0,0,0,0,0,0,0,0,0,0,0,2.2801,2.2723,2.2885,2.2913,2.2917,2.2981,2.2982,2.2984,2.3011,2.3011,2.301,2.3009,2.3099,2.3103,2.3107,2.3149,0,0,2.3121,2.3122,0,0,0,0,0,0,0,0,2.2796,2.2807,2.2908,2.2911,2.2915,2.2984,2.2957,2.3039,2.3012,2.2975,2.301,2.3009,2.3062,2.3069,2.3089,2.3153,2.3157,2.3121,2.3124,2.3125,2.3127,0,0,0,0,0,0,0,2.279,2.2803,2.2923,2.2909,2.2914,2.2918,2.2929,2.2973,2.3021,2.2978,2.2981,2.2992,2.3064,2.3084,2.3091,2.3158,2.3121,2.3125,2.3127,2.3129,2.3257,2.3258,0,0,0,0,0,0,2.2781,2.2798,2.292,2.2926,2.2853,2.2922,2.2934,2.2962,2.3021,2.3029,2.2992,2.2993,2.3077,2.3086,2.3094,2.3145,2.3125,2.3129,2.3132,2.3257,2.3258,2.3258,0,0,0,0,0,0,2.2777,2.2792,2.2916,2.2863,2.2879,2.2926,2.2957,2.2965,2.2985,2.3032,2.304,2.3005,2.3077,2.3088,2.3135,2.3148,2.3131,2.3135,2.3256,2.3257,2.3258,2.3247,0,0,0,0,0,0,2.2773,2.279,2.2808,2.2863,2.2882,2.2957,2.2958,2.2967,2.2993,2.2995,2.3046,2.3053,2.3077,2.3128,2.3139,2.3154,2.3139,2.3255,2.3256,2.3258,2.3246,2.3247,2.3248,0,0,0,0,0,2.2767,2.2801,2.2809,2.2824,2.2906,2.2958,2.2969,2.2998,2.2994,2.3012,2.3041,2.3052,2.3145,2.3133,2.3145,2.3161,2.3254,2.3256,2.3257,2.3245,2.3247,2.3248,0,0,0,0,0,0,2.2745,2.2808,2.2819,2.2872,2.291,2.2963,2.2986,2.2999,2.3037,2.3036,2.3068,2.308,2.3123,2.3147,2.3132,2.3203,2.3199,2.3204,2.3186,2.3188,2.3189,2.3182,2.3142,0,0,0,0,0,2.2747,2.2786,2.2839,2.288,2.2899,2.2939,2.2963,2.2982,2.3021,2.3037,2.307,2.3106,2.3143,2.3167,2.3204,2.3249,2.3259,2.3266,2.3268,2.3268,2.3272,2.3295,2.3298,2.3264,2.3264,2.3264,0,0,2.275,2.2789,2.2812,2.2877,2.2908,2.2946,2.2952,2.2992,2.302,2.3042,2.3088,2.3113,2.3155,2.3201,2.3223,2.3222,2.3283,2.3271,2.3271,2.3274,2.3297,2.33,2.3303,2.3266,2.3265,2.3265,0,0,2.2775,2.281,2.2848,2.2879,2.2927,2.2953,2.2962,2.3013,2.3031,2.3078,2.3095,2.3127,2.3191,2.322,2.3243,2.3276,2.3286,2.3287,2.3293,2.3315,2.3318,2.3321,2.3331,2.3334,2.329,2.329,2.329,0,2.2773,2.2833,2.2865,2.2904,2.2931,2.2954,2.2991,2.3019,2.3076,2.3092,2.3091,2.3171,2.3201,2.3252,2.326,2.3279,2.3288,2.3281,2.3316,2.3318,2.3321,2.3331,2.3335,2.329,2.329,2.329,2.329,0,2.2826,2.2867,2.2891,2.2947,2.2976,2.3014,2.3049,2.3074,2.309,2.3115,2.3161,2.3197,2.3241,2.3255,2.327,2.3308,2.3306,2.331,2.3307,2.3323,2.3333,2.3337,2.3289,2.3289,2.3289,2.3289,0,0,2.2841,2.2913,2.2922,2.2946,2.3,2.3031,2.3068,2.3113,2.3132,2.317,2.32,2.3253,2.3257,2.3282,2.3301,2.332,2.3342,2.3322,2.3323,2.3323,2.3383,2.3379,2.3383,2.3349,2.335,2.3351,2.3379,0,2.2872,2.2942,2.2971,2.3026,2.3063,2.3085,2.3116,2.3151,2.3175,2.3207,2.3233,2.3269,2.3272,2.3288,2.3308,2.3335,2.3354,2.3334,2.3375,2.3376,2.3363,2.3389,2.3385,2.341,2.3383,2.3384,2.3384,0,2.2918,2.2957,2.3016,2.3064,2.308,2.3109,2.3151,2.3182,2.3221,2.3237,2.3265,2.3282,2.3318,2.3313,2.3362,2.3348,2.3366,2.3381,2.3383,2.3387,2.3381,2.3392,2.3419,2.3422,2.3391,2.339,2.339,0,2.292,2.2988,2.3032,2.3052,2.3109,2.3128,2.3153,2.3191,2.3215,2.3251,2.3266,2.3305,2.3326,2.3354,2.338,2.3374,2.3425,2.3423,2.3437,2.3437,2.3447,2.3446,2.3476,2.346,2.346,2.346,2.346,0,2.2951,2.2986,2.3034,2.306,2.3099,2.3131,2.3167,2.3193,2.3226,2.3256,2.3276,2.3303,2.3337,2.3367,2.3387,2.3423,2.3433,2.3445,2.3449,2.3443,2.3441,2.3455,2.3453,2.3461,2.3461,2.3461,2.346,0,2.2961,2.2994,2.3043,2.3093,2.3107,2.3133,2.3174,2.3199,2.3224,2.3261,2.3272,2.3309,2.3346,2.3375,2.3422,2.3435,2.3473,2.3479,2.3461,2.3463,2.3475,2.3473,2.3514,2.352,2.3502,2.3502,2.3502,0,2.2978,2.3005,2.3058,2.3081,2.3106,2.3141,2.3167,2.3198,2.3222,2.3267,2.3286,2.3325,2.3357,2.3414,2.3444,2.348,2.3486,2.3497,2.3491,2.3483,2.3484,2.3482,2.3484,2.3498,2.3498,2.3498,2.3498,0,2.3004,2.3019,2.3055,2.3097,2.3127,2.3161,2.3195,2.3211,2.3248,2.3274,2.3313,2.3338,2.3387,2.3424,2.3462,2.3484,2.3496,2.35,2.3505,2.3498,2.3486,2.3491,2.3462,2.3499,2.3499,2.3499,2.3499,2.3498,2.3017,2.3042,2.3083,2.3122,2.3151,2.3182,2.3208,2.3236,2.327,2.3313,2.3329,2.3368,2.3403,2.3456,2.3478,2.3507,2.3508,2.3515,2.3517,2.3518,2.3517,2.3482,2.3514,2.3514,2.3514,2.3514,2.3514,0,2.3042,2.307,2.3106,2.3154,2.3184,2.3195,2.3233,2.3256,2.3291,2.3324,2.3356,2.3399,2.3435,2.3467,2.3503,2.352,2.3527,2.3529,2.3527,2.3532,2.3515,2.3507,2.3523,2.3523,2.3523,2.3523,2.3523,2.3523,2.3059,2.3102,2.3121,2.3177,2.3203,2.3244,2.3264,2.3292,2.3318,2.3366,2.3397,2.3418,2.345,2.3489,2.3521,2.3529,2.3541,2.3541,2.3551,2.3534,2.3533,2.3532,2.3524,2.3544,2.3544,2.3565,2.3565,2.3565]}]]